TimeCST,TemperatureF,Dew PointF,Humidity,Sea Level PressureIn,VisibilityMPH,Wind Direction,Wind SpeedMPH,Gust SpeedMPH,PrecipitationIn,Events,Conditions,WindDirDegrees,DateUTC
12:53 AM,33.1,28.9,85,30.44,10.0,Calm,Calm,-,N/A,,Clear,0,2013-01-04 06:53:00
1:53 AM,30.0,28.0,92,30.46,6.0,Calm,Calm,-,N/A,,Clear,0,2013-01-04 07:53:00
2:53 AM,32.0,30.0,92,30.45,7.0,Calm,Calm,-,N/A,,Overcast,0,2013-01-04 08:53:00
3:53 AM,33.1,30.9,92,30.44,7.0,Calm,Calm,-,N/A,,Overcast,0,2013-01-04 09:53:00
4:53 AM,34.0,32.0,92,30.44,7.0,Calm,Calm,-,N/A,,Overcast,0,2013-01-04 10:53:00
6:53 AM,30.0,28.0,92,30.48,5.0,Calm,Calm,-,N/A,,Clear,0,2013-01-04 12:53:00
7:53 AM,30.9,28.9,92,30.51,4.0,WNW,3.5,-,N/A,,Clear,290,2013-01-04 13:53:00
8:53 AM,39.0,32.0,76,30.51,10.0,Calm,Calm,-,N/A,,Clear,0,2013-01-04 14:53:00
9:53 AM,43.0,30.0,60,30.52,10.0,Calm,Calm,-,N/A,,Clear,0,2013-01-04 15:53:00
10:53 AM,46.0,28.9,51,30.51,10.0,Calm,Calm,-,N/A,,Partly Cloudy,0,2013-01-04 16:53:00
11:53 AM,48.0,30.9,52,30.48,10.0,Calm,Calm,-,N/A,,Clear,0,2013-01-04 17:53:00
12:53 PM,48.9,30.0,48,30.45,10.0,NNW,3.5,-,N/A,,Clear,330,2013-01-04 18:53:00
1:53 PM,50.0,28.0,43,30.42,10.0,Variable,4.6,-,N/A,,Clear,0,2013-01-04 19:53:00
2:53 PM,51.1,27.0,39,30.41,10.0,West,3.5,-,N/A,,Clear,280,2013-01-04 20:53:00
3:53 PM,50.0,26.1,39,30.41,10.0,NW,3.5,-,N/A,,Clear,310,2013-01-04 21:53:00
4:53 PM,48.9,28.0,44,30.41,10.0,NE,4.6,-,N/A,,Overcast,40,2013-01-04 22:53:00
5:53 PM,46.0,33.1,61,30.42,10.0,ENE,4.6,-,N/A,,Overcast,70,2013-01-04 23:53:00
6:53 PM,45.0,33.1,63,30.42,10.0,Calm,Calm,-,N/A,,Overcast,0,2013-01-05 00:53:00
7:53 PM,45.0,35.1,68,30.43,10.0,Calm,Calm,-,N/A,,Overcast,0,2013-01-05 01:53:00
8:53 PM,41.0,34.0,76,30.41,10.0,Calm,Calm,-,N/A,,Partly Cloudy,0,2013-01-05 02:53:00
9:53 PM,39.0,33.1,79,30.42,10.0,Calm,Calm,-,N/A,,Partly Cloudy,0,2013-01-05 03:53:00
10:53 PM,34.0,30.9,89,30.41,10.0,Calm,Calm,-,N/A,,Clear,0,2013-01-05 04:53:00
11:53 PM,33.1,30.9,92,30.40,10.0,Calm,Calm,-,N/A,,Clear,0,2013-01-05 05:53:00